Simultaneous Nadir Overpasses (SNOs) Predictions

Prediction of SNOs between GOES-14 and NOAA-20 Satellite Orbit:

Table of predicted SNOs for the next 14.0 days since TLE Epoch: 4/13/2024
Index Date Time (GOES-14) GOES-14 Lat,Lon NOAA-20 Lat,Lon Distance(km) Time Diff (sec)
1 04/13/2024 20:24:41 -0.18,-108.57 0.71,-104.60 452.50 80
2 04/15/2024 08:46:36 0.18,-108.56 0.49,-109.90 153.22 80
3 04/16/2024 08:25:17 0.18,-108.56 -0.51,-105.39 360.78 80
4 04/17/2024 20:47:22 -0.18,-108.58 -0.64,-110.74 246.35 80
5 04/18/2024 20:31:22 -0.19,-108.58 0.37,-106.23 268.30 80
6 04/20/2024 08:53:18 0.18,-108.58 0.83,-111.54 336.18 80
7 04/21/2024 08:31:58 0.19,-108.59 -0.17,-107.03 178.10 80
8 04/22/2024 20:54:03 -0.18,-108.60 -1.02,-112.37 429.62 80
9 04/23/2024 20:38:03 -0.18,-108.61 -0.01,-107.86 84.98 80
10 04/26/2024 08:41:19 0.17,-108.61 0.19,-108.66 5.23 80
